FLOCK 3P-27

Last updated on Wed Feb 14 2018 16:20:20 GMT+0000 (Coordinated Universal Time)

1 41963U 17008R 18045.46984050 .00001644 00000-0 70917-4 0 9996 2 41963 97.4653 110.9015 0010342 67.6651 292.5681 15.23940144 55250
UTC large
Height (km)
Speed (km/s)
/
Latitude / Longitude
Inclination (degrees)
Orbital Period (minutes)
Azimuth
Elevation
Range (km)
Doppler Factor

Next 0 passes for location: London (51.5072 / 0.1276)

Sorry there are no passes over London.